    Observer details:
    104 San Marcello Pistoiese.  Observer P. Bacci.  Measurers P. Bacci, L. Tesi,
        G. Fagioli.  0.60-m f/4 reflector + CCD.
    160 Castelmartini.  Observers M. Jaeger, E. Prosperi, S. Prosperi, W. Vollmann.
        Measurer E. Prosperi.  0.35-m f/10 Schmidt-Cassegrain + CCD.
    204 Schiaparelli Observatory.  Observer L. Buzzi.  0.60-m f/4.64 reflector
        + CCD.
    470 Ceccano.  Observers G. Masi, F. Nocentini.  Measurers G. Masi, U. Masi,
        F. Nocentini.  0.43-m f/6.8 reflector + CCD.
    595 Farra d'Isonzo.  Observer E. Pettarin.  0.40-m f/4.5 reflector + CCD.
    704 Lincoln Laboratory ETS, New Mexico.  Observers M. Blythe, G. Spitz,
        R. Brungard, J. Paige, P. Festler, T. McVey, A. Valdivia, C. Gall.  1.0-m
        f/2.15 reflector + CCD.
    711 McDonald Observatory.  Observer T. Lister.  1.0-m f/8 Ritchey-Chretien
        + CCD.
    718 Wiggins Observatory, Tooele.  Observer P. Wiggins.  0.35-m f/5.5
        Schmidt-Cassegrain + CCD.
    807 Cerro Tololo.  Observers T. Linder, R. Holmes.  0.41-m f/11
        Ritchey-Chretien + CCD.
    954 Teide Observatory.  Observer N. D. Diaz.  0.26-m f/11.6 reflector + CCD.
    H21 Astronomical Research Observatory, Westfield.  Observer R. Holmes.
        Measurers T. Vorobjov, L. Buzzi, S. Foglia.  0.61-m f/4.0 astrograph + CCD.
    H36 Sandlot Observatory, Scranton.  Observer G. Hug.  0.56-m reflector + CCD.
    I48 Observatorio El Catalejo, Santa Rosa.  Observer J. Spagnotto.  0.20-m f/5
        reflector + CCD.
    I93 St Pardon de Conques.  Observer F. Losse.  0.40-m f/5.0 reflector + CCD.
    J75 OAM Observatory, La Sagra.  Observers S. Sanchez, J. Nomen, M. Hurtado,
        J. A. Jaume, W. K. Y. Yeung, P. Rios, F. Serra, T. Valls, V. Rios.  0.45-m
        f/2.8 reflector + CCD.
    J95 Great Shefford.  Observer P. Birtwhistle.  0.40-m f/6.0 Schmidt-Cassegrain
        + CCD.
    
    Orbital elements:
    2012 OP4                                            PHA, Earth MOID = 0.0493 AU
    Epoch 2012 Sept. 30.0 TT = JDT 2456200.5                MPC
    M 358.55412              (2000.0)            P               Q
    n   0.31836197     Peri.  262.54388     +0.65183310     -0.72920261
    a   2.1241667      Node   143.86435     +0.75645671     +0.64465198
    e   0.6583571      Incl.   20.68215     -0.05372949     +0.22953730
    P   3.10           H   19.7           G   0.15           U   8
    Residuals in seconds of arc
    120728 J75  0.2+  0.4+    120728 595  0.1+  0.2-    120730 704  0.1+  0.8+
    120728 J75  1.1+  0.0     120728 160  0.0   0.3+    120730 704  0.2+  1.4+
    120728 J75  0.4-  0.1-    120728 160  0.0   0.5+    120730 704  0.5+  0.4+
    120728 470  1.2-  0.1-    120728 160  0.1+  0.1+    120730 711  0.0   0.3-
    120728 470  0.3+  0.3+    120728 160  0.3+  0.0     120730 711  0.1-  0.1-
    120728 470  0.2+  0.1-    120729 I93  0.2+  0.1+    120730 711  0.1-  0.3-
    120728 470  0.3+  0.2-    120729 I93  0.0   0.0     120730 711  0.1-  0.2-
    120728 J75  0.0   0.0     120729 954  0.0   0.3-    120730 711  0.1-  0.1-
    120728 J75  0.2-  0.1+    120729 I93  0.1+  0.2+    120730 711  0.0   0.2-
    120728 J75  0.5-  0.1-    120729 954  1.1-  0.5-    120730 711  0.2+  0.1-
    120728 H21  0.2+  0.0     120729 954  0.3-  0.3-    120730 711  0.1-  0.3-
    120728 H21  0.1+  0.2-    120729 807  0.1+  0.1-    120730 711  0.0   0.2-
    120728 H21  0.3+  0.2+    120729 807  0.1+  0.1-    120730 711  0.1+  0.1-
    120728 H21  0.2-  0.0     120729 807  0.0   0.0     120730 711  0.0   0.2-
    120728 H36  0.2+  0.5-    120729 807  0.1+  0.0     120730 711  0.0   0.3-
    120728 H36  0.5+  0.4-    120729 807  0.1+  0.1-    120730 704  0.0   1.2+
    120728 H36  0.2+  0.3-    120729 204  0.0   0.2+    120730 704  0.2+  0.5+
    120728 I48  0.9-  0.3-    120729 204  0.5-  0.3-    120730 711  0.0   0.1-
    120728 I48  0.3-  0.2+    120729 204  0.3-  0.4-    120730 711  0.1+  0.3-
    120728 I48  0.7-  0.1+    120730 J95  0.0   0.2-    120730 711  0.1-  0.2-
    120728 I48  0.3-  1.0+    120730 J95  0.0   0.2-    120730 711  0.1+  0.2-
    120728 718  0.3+  0.2-    120730 J95  0.1+  0.2+    120730 711  0.0   0.2-
    120728 704  1.7+  0.4-    120730 807  0.1+  0.1-    120730 711  0.0   0.2-
    120728 718  0.5-  0.5+    120730 807  0.3+  0.2-    120730 711  0.0   0.2-
    120728 704  0.1+  1.2+    120730 807  0.1+  0.1-    120730 711  0.0   0.2-
    120728 718  0.1+  0.1+    120730 807  0.0   0.2-    120730 711  0.0   0.1-
    120728 704  0.1+  0.8+    120730 704  0.9-  1.1+    120731 807  0.3-  0.3-
    120728 104  0.6-  0.5-    120730 704  0.2-  0.0     120731 807  0.2-  0.3-
    120728 104  0.2-  0.2-    120730 704  0.1-  0.9+    120731 807  0.1-  0.2+
    120728 104  0.2-  0.5-    120730 704  0.2+  0.7+    120731 807  0.3+  0.2-
    120728 595  0.1+  1.3-    120730 704  0.6+  0.8+
    
    Ephemeris:
    2012 OP4                 a,e,i = 2.12, 0.66, 21                  q = 0.7257
    Date    TT    R. A. (2000) Decl.     Delta      r     Elong.  Phase     V
    2012 07 01    21 47 01.2 +07 48 49   0.6897  1.5210   125.0    33.2    21.2
    ...
    2012 07 16    22 12 03.4 +09 15 39   0.4637  1.3714   132.2    33.3    20.1
    ...
    2012 07 24    22 31 59.3 +09 25 42   0.3520  1.2897   135.2    33.7    19.4
    ...
    2012 07 30    22 54 30.3 +08 56 44   0.2731  1.2279   136.5    34.7    18.8
    2012 07 31    22 59 20.4 +08 46 53   0.2605  1.2176   136.6    34.9    18.6
    2012 08 01    23 04 36.1 +08 35 03   0.2480  1.2072   136.6    35.3    18.5
    ...
    2012 08 07    23 49 15.6 +06 22 10   0.1779  1.1453   134.2    39.4    17.8
    ...
    2012 08 15    02 00 50.3 -02 29 22   0.1112  1.0636   114.4    60.1    17.2
    ...
    2012 08 30    07 12 24.2 -15 56 57   0.1864  0.9181    55.9   114.5    20.3
    
    A. U. Tomatic                (C) Copyright 2012 MPC           M.P.E.C. 2012-O47
    

    Read MPEC 2012-O46 Read MPEC 2012-O48


    MPEC number:

    Enter an MPEC number in one of the following forms:

    • 1997-B01 (the full form)
    • J97B01 (the packed version of the full form)
    • B01 (the abbreviated form)